Time,TemperatureF,DewpointF,PressureIn,WindDirection,WindDirectionDegrees,WindSpeedMPH,WindSpeedGustMPH,Humidity,HourlyPrecipIn,Conditions,Clouds,dailyrainin,SoftwareType,DateUTC
2013-05-15 00:00:00,74.0,61.0,29.76,WNW,298,8.0,8.0,64,0.00,,,0.00,Wunderground v.1.15,2013-05-15 04:00:00,
2013-05-15 00:05:00,73.9,61.0,29.76,WNW,297,8.0,10.0,64,0.00,,,0.00,Wunderground v.1.15,2013-05-15 04:05:00,
2013-05-15 00:10:00,73.8,61.3,29.76,WNW,294,8.0,13.0,65,0.00,,,0.00,Wunderground v.1.15,2013-05-15 04:10:00,
2013-05-15 00:15:00,74.0,61.5,29.76,West,281,8.0,13.0,65,0.00,,,0.00,Wunderground v.1.15,2013-05-15 04:15:00,
2013-05-15 00:20:00,73.9,61.0,29.77,WNW,288,8.0,8.0,64,0.00,,,0.00,Wunderground v.1.15,2013-05-15 04:20:00,
2013-05-15 00:25:00,73.8,60.9,29.77,WNW,302,8.0,9.0,64,0.00,,,0.00,Wunderground v.1.15,2013-05-15 04:25:00,
2013-05-15 00:30:00,73.8,60.9,29.77,WNW,290,9.0,9.0,64,0.00,,,0.00,Wunderground v.1.15,2013-05-15 04:30:00,
2013-05-15 00:35:00,73.6,61.1,29.77,WNW,300,9.0,12.0,65,0.00,,,0.00,Wunderground v.1.15,2013-05-15 04:35:00,
2013-05-15 00:40:00,73.5,61.0,29.77,WNW,288,9.0,9.0,65,0.00,,,0.00,Wunderground v.1.15,2013-05-15 04:40:00,
2013-05-15 00:45:00,73.1,61.1,29.77,WNW,303,7.0,12.0,66,0.00,,,0.00,Wunderground v.1.15,2013-05-15 04:45:00,
2013-05-15 00:50:00,73.0,61.0,29.77,West,271,7.0,7.0,66,0.00,,,0.00,Wunderground v.1.15,2013-05-15 04:50:00,
2013-05-15 01:00:00,72.7,61.1,29.76,WNW,289,7.0,12.0,67,0.00,,,0.00,Wunderground v.1.15,2013-05-15 05:00:00,
2013-05-15 01:05:00,72.4,60.8,29.75,West,277,7.0,12.0,67,0.00,,,0.00,Wunderground v.1.15,2013-05-15 05:05:00,
2013-05-15 01:10:00,72.2,61.0,29.75,West,266,7.0,12.0,68,0.00,,,0.00,Wunderground v.1.15,2013-05-15 05:10:00,
2013-05-15 01:15:00,72.1,61.0,29.75,WNW,283,7.0,12.0,68,0.00,,,0.00,Wunderground v.1.15,2013-05-15 05:15:00,
2013-05-15 01:25:00,72.0,60.9,29.74,WNW,301,8.0,12.0,68,0.00,,,0.00,Wunderground v.1.15,2013-05-15 05:25:00,
2013-05-15 01:35:00,72.1,61.0,29.74,WNW,288,8.0,12.0,68,0.00,,,0.00,Wunderground v.1.15,2013-05-15 05:35:00,
2013-05-15 01:40:00,72.1,61.0,29.74,West,280,9.0,12.0,68,0.00,,,0.00,Wunderground v.1.15,2013-05-15 05:40:00,
2013-05-15 01:45:00,72.1,61.0,29.73,WNW,285,10.0,12.0,68,0.00,,,0.00,Wunderground v.1.15,2013-05-15 05:45:00,
2013-05-15 01:50:00,72.0,60.9,29.73,WNW,302,10.0,13.0,68,0.00,,,0.00,Wunderground v.1.15,2013-05-15 05:50:00,
2013-05-15 01:55:00,72.1,61.0,29.72,WNW,300,10.0,13.0,68,0.00,,,0.00,Wunderground v.1.15,2013-05-15 05:55:00,
2013-05-15 02:00:00,72.4,60.8,29.72,WNW,285,11.0,11.0,67,0.00,,,0.00,Wunderground v.1.15,2013-05-15 06:00:00,
2013-05-15 02:05:00,72.6,61.0,29.72,WNW,283,11.0,12.0,67,0.00,,,0.00,Wunderground v.1.15,2013-05-15 06:05:00,
2013-05-15 02:15:00,73.2,60.7,29.71,WNW,301,13.0,17.0,65,0.00,,,0.00,Wunderground v.1.15,2013-05-15 06:15:00,
2013-05-15 02:20:00,73.5,60.6,29.70,WNW,294,15.0,15.0,64,0.00,,,0.00,Wunderground v.1.15,2013-05-15 06:20:00,
2013-05-15 02:25:00,73.7,60.8,29.70,NW,325,17.0,23.0,64,0.00,,,0.00,Wunderground v.1.15,2013-05-15 06:25:00,
2013-05-15 02:35:00,73.9,60.5,29.70,West,280,17.0,18.0,63,0.00,,,0.00,Wunderground v.1.15,2013-05-15 06:35:00,
2013-05-15 02:40:00,74.1,59.8,29.70,WNW,297,18.0,20.0,61,0.00,,,0.00,Wunderground v.1.15,2013-05-15 06:40:00,
2013-05-15 02:45:00,74.3,59.0,29.70,NW,305,19.0,23.0,59,0.00,,,0.00,Wunderground v.1.15,2013-05-15 06:45:00,
2013-05-15 02:50:00,74.6,59.3,29.70,WNW,300,20.0,20.0,59,0.00,,,0.00,Wunderground v.1.15,2013-05-15 06:50:00,
2013-05-15 03:00:00,74.5,59.2,29.71,NNW,330,18.0,18.0,59,0.00,,,0.00,Wunderground v.1.15,2013-05-15 07:00:00,
2013-05-15 03:10:00,75.4,58.1,29.71,WNW,291,22.0,22.0,55,0.00,,,0.00,Wunderground v.1.15,2013-05-15 07:10:00,
2013-05-15 03:15:00,75.4,57.6,29.71,NW,313,21.0,22.0,54,0.00,,,0.00,Wunderground v.1.15,2013-05-15 07:15:00,
2013-05-15 03:25:00,75.5,57.7,29.70,NNW,330,20.0,29.0,54,0.00,,,0.00,Wunderground v.1.15,2013-05-15 07:25:00,
2013-05-15 03:30:00,75.6,57.3,29.69,NNW,335,21.0,25.0,53,0.00,,,0.00,Wunderground v.1.15,2013-05-15 07:30:00,
2013-05-15 03:35:00,75.7,57.4,29.69,NW,312,21.0,27.0,53,0.00,,,0.00,Wunderground v.1.15,2013-05-15 07:35:00,
2013-05-15 03:45:00,75.8,56.9,29.69,WNW,295,24.0,29.0,52,0.00,,,0.00,Wunderground v.1.15,2013-05-15 07:45:00,
2013-05-15 03:50:00,76.0,56.6,29.70,NNW,342,24.0,24.0,51,0.00,,,0.00,Wunderground v.1.15,2013-05-15 07:50:00,
2013-05-15 03:55:00,75.9,56.5,29.70,WNW,300,25.0,25.0,51,0.00,,,0.00,Wunderground v.1.15,2013-05-15 07:55:00,
2013-05-15 04:00:00,75.7,56.3,29.70,NW,304,24.0,29.0,51,0.00,,,0.00,Wunderground v.1.15,2013-05-15 08:00:00,
2013-05-15 04:05:00,75.5,56.1,29.70,WNW,300,23.0,29.0,51,0.00,,,0.00,Wunderground v.1.15,2013-05-15 08:05:00,
2013-05-15 04:15:00,75.4,56.0,29.70,NW,308,22.0,29.0,51,0.00,,,0.00,Wunderground v.1.15,2013-05-15 08:15:00,
2013-05-15 04:20:00,75.1,55.7,29.70,WNW,295,22.0,22.0,51,0.00,,,0.00,Wunderground v.1.15,2013-05-15 08:20:00,
2013-05-15 04:25:00,75.1,56.3,29.70,WNW,297,22.0,26.0,52,0.00,,,0.00,Wunderground v.1.15,2013-05-15 08:25:00,
2013-05-15 04:30:00,74.8,56.0,29.70,NNW,337,24.0,24.0,52,0.00,,,0.00,Wunderground v.1.15,2013-05-15 08:30:00,
2013-05-15 04:45:00,74.1,55.9,29.70,South,173,18.0,27.0,53,0.00,,,0.00,Wunderground v.1.15,2013-05-15 08:45:00,
2013-05-15 04:55:00,73.8,55.6,29.70,NW,322,19.0,27.0,53,0.00,,,0.00,Wunderground v.1.15,2013-05-15 08:55:00,
2013-05-15 05:00:00,73.8,55.6,29.70,WNW,301,19.0,19.0,53,0.00,,,0.00,Wunderground v.1.15,2013-05-15 09:00:00,
2013-05-15 05:05:00,73.8,55.6,29.70,NW,319,20.0,22.0,53,0.00,,,0.00,Wunderground v.1.15,2013-05-15 09:05:00,
2013-05-15 05:15:00,73.7,55.0,29.70,North,352,19.0,27.0,52,0.00,,,0.00,Wunderground v.1.15,2013-05-15 09:15:00,
2013-05-15 05:20:00,73.6,55.4,29.70,WNW,290,18.0,27.0,53,0.00,,,0.00,Wunderground v.1.15,2013-05-15 09:20:00,
2013-05-15 05:25:00,73.5,55.3,29.70,NNW,347,18.0,27.0,53,0.00,,,0.00,Wunderground v.1.15,2013-05-15 09:25:00,
2013-05-15 05:35:00,73.4,55.2,29.70,NW,313,19.0,29.0,53,0.00,,,0.00,Wunderground v.1.15,2013-05-15 09:35:00,
2013-05-15 05:45:00,73.3,55.1,29.71,NW,305,20.0,27.0,53,0.00,,,0.00,Wunderground v.1.15,2013-05-15 09:45:00,
2013-05-15 05:50:00,73.1,54.9,29.71,NNW,340,20.0,27.0,53,0.00,,,0.00,Wunderground v.1.15,2013-05-15 09:50:00,
2013-05-15 05:55:00,73.0,54.9,29.72,NNW,328,20.0,27.0,53,0.00,,,0.00,Wunderground v.1.15,2013-05-15 09:55:00,
2013-05-15 06:00:00,72.8,55.2,29.71,NNW,345,20.0,20.0,54,0.00,,,0.00,Wunderground v.1.15,2013-05-15 10:00:00,
2013-05-15 06:05:00,72.7,55.1,29.71,NNE,33,19.0,27.0,54,0.00,,,0.00,Wunderground v.1.15,2013-05-15 10:05:00,
2013-05-15 06:10:00,72.3,55.2,29.72,NNW,328,17.0,27.0,55,0.00,,,0.00,Wunderground v.1.15,2013-05-15 10:10:00,
2013-05-15 06:20:00,72.0,54.9,29.72,NNE,18,18.0,27.0,55,0.00,,,0.00,Wunderground v.1.15,2013-05-15 10:20:00,
2013-05-15 06:30:00,71.8,55.3,29.72,NW,304,18.0,18.0,56,0.00,,,0.00,Wunderground v.1.15,2013-05-15 10:30:00,
2013-05-15 06:35:00,71.7,55.2,29.73,NNW,335,16.0,20.0,56,0.00,,,0.00,Wunderground v.1.15,2013-05-15 10:35:00,
2013-05-15 06:40:00,71.7,55.2,29.73,NNW,329,16.0,16.0,56,0.00,,,0.00,Wunderground v.1.15,2013-05-15 10:40:00,
2013-05-15 06:50:00,71.5,55.0,29.73,NW,326,16.0,27.0,56,0.00,,,0.00,Wunderground v.1.15,2013-05-15 10:50:00,
2013-05-15 07:00:00,71.3,55.3,29.74,NW,325,16.0,16.0,57,0.00,,,0.00,Wunderground v.1.15,2013-05-15 11:00:00,
2013-05-15 07:10:00,71.2,55.2,29.75,NNE,13,13.0,13.0,57,0.00,,,0.00,Wunderground v.1.15,2013-05-15 11:10:00,
2013-05-15 07:25:00,71.0,55.5,29.75,NW,306,12.0,15.0,58,0.00,,,0.00,Wunderground v.1.15,2013-05-15 11:25:00,
2013-05-15 07:35:00,71.2,55.7,29.76,NW,307,12.0,29.0,58,0.00,,,0.00,Wunderground v.1.15,2013-05-15 11:35:00,
2013-05-15 07:45:00,71.3,55.8,29.76,NW,315,13.0,29.0,58,0.00,,,0.00,Wunderground v.1.15,2013-05-15 11:45:00,
2013-05-15 07:50:00,71.2,55.7,29.76,NNW,338,12.0,29.0,58,0.00,,,0.00,Wunderground v.1.15,2013-05-15 11:50:00,
2013-05-15 08:00:00,71.1,55.6,29.76,NW,325,11.0,11.0,58,0.00,,,0.00,Wunderground v.1.15,2013-05-15 12:00:00,
2013-05-15 08:10:00,71.1,56.0,29.77,WNW,302,11.0,11.0,59,0.00,,,0.00,Wunderground v.1.15,2013-05-15 12:10:00,
2013-05-15 08:15:00,71.1,56.0,29.77,NW,311,10.0,29.0,59,0.00,,,0.00,Wunderground v.1.15,2013-05-15 12:15:00,
2013-05-15 08:25:00,71.2,56.1,29.77,NE,56,9.0,29.0,59,0.00,,,0.00,Wunderground v.1.15,2013-05-15 12:25:00,
2013-05-15 08:35:00,71.7,56.1,29.76,NW,308,9.0,29.0,58,0.00,,,0.00,Wunderground v.1.15,2013-05-15 12:35:00,
2013-05-15 08:45:00,71.3,57.2,29.76,NW,304,6.0,29.0,61,0.00,,,0.01,Wunderground v.1.15,2013-05-15 12:45:00,
2013-05-15 08:55:00,70.2,57.4,29.78,NE,39,10.0,29.0,64,0.00,,,0.01,Wunderground v.1.15,2013-05-15 12:55:00,
2013-05-15 09:00:00,70.1,57.8,29.78,ESE,112,9.0,9.0,65,0.00,,,0.01,Wunderground v.1.15,2013-05-15 13:00:00,
2013-05-15 09:05:00,69.7,57.8,29.78,NNE,18,8.0,29.0,66,0.00,,,0.01,Wunderground v.1.15,2013-05-15 13:05:00,
2013-05-15 09:15:00,69.7,57.8,29.77,NNE,15,7.0,29.0,66,0.00,,,0.01,Wunderground v.1.15,2013-05-15 13:15:00,
2013-05-15 09:20:00,69.5,58.1,29.75,North,354,6.0,6.0,67,0.00,,,0.01,Wunderground v.1.15,2013-05-15 13:20:00,
2013-05-15 09:30:00,69.0,58.4,29.76,NNW,345,6.0,6.0,69,0.00,,,0.01,Wunderground v.1.15,2013-05-15 13:30:00,
2013-05-15 09:35:00,68.8,58.6,29.79,NNW,330,8.0,13.0,70,0.00,,,0.01,Wunderground v.1.15,2013-05-15 13:35:00,
2013-05-15 09:40:00,68.8,58.6,29.79,NW,318,10.0,10.0,70,0.00,,,0.01,Wunderground v.1.15,2013-05-15 13:40:00,
2013-05-15 09:50:00,69.2,58.6,29.80,NE,47,8.0,8.0,69,0.00,,,0.01,Wunderground v.1.15,2013-05-15 13:50:00,
2013-05-15 10:00:00,69.3,59.1,29.80,NW,315,7.0,11.0,70,0.00,,,0.01,Wunderground v.1.15,2013-05-15 14:00:00,
2013-05-15 10:10:00,69.7,58.7,29.79,NNE,27,7.0,8.0,68,0.00,,,0.01,Wunderground v.1.15,2013-05-15 14:10:00,
2013-05-15 10:15:00,70.0,58.5,29.80,NW,323,8.0,8.0,67,0.00,,,0.01,Wunderground v.1.15,2013-05-15 14:15:00,
2013-05-15 10:20:00,70.6,58.7,29.79,NE,39,9.0,11.0,66,0.00,,,0.02,Wunderground v.1.15,2013-05-15 14:20:00,
2013-05-15 10:30:00,71.2,58.8,29.79,WNW,298,7.0,7.0,65,0.00,,,0.02,Wunderground v.1.15,2013-05-15 14:30:00,
2013-05-15 10:40:00,72.4,59.1,29.80,North,4,10.0,15.0,63,0.00,,,0.02,Wunderground v.1.15,2013-05-15 14:40:00,
2013-05-15 10:50:00,73.5,58.8,29.81,WNW,300,11.0,11.0,60,0.00,,,0.02,Wunderground v.1.15,2013-05-15 14:50:00,
2013-05-15 10:55:00,74.2,58.5,29.80,NW,326,11.0,13.0,58,0.00,,,0.02,Wunderground v.1.15,2013-05-15 14:55:00,
2013-05-15 11:05:00,75.0,57.7,29.80,NW,321,11.0,15.0,55,0.00,,,0.02,Wunderground v.1.15,2013-05-15 15:05:00,
2013-05-15 11:10:00,75.3,58.0,29.80,NE,41,11.0,11.0,55,0.00,,,0.02,Wunderground v.1.15,2013-05-15 15:10:00,
2013-05-15 11:15:00,75.6,58.3,29.80,SW,229,12.0,12.0,55,0.00,,,0.02,Wunderground v.1.15,2013-05-15 15:15:00,
2013-05-15 11:20:00,76.1,56.7,29.80,South,179,13.0,13.0,51,0.00,,,0.02,Wunderground v.1.15,2013-05-15 15:20:00,
2013-05-15 11:30:00,76.1,56.7,29.80,NW,319,14.0,14.0,51,0.00,,,0.02,Wunderground v.1.15,2013-05-15 15:30:00,
2013-05-15 11:35:00,76.6,56.6,29.80,WNW,298,13.0,19.0,50,0.00,,,0.02,Wunderground v.1.15,2013-05-15 15:35:00,
2013-05-15 11:45:00,77.5,56.8,29.81,NNE,16,12.0,15.0,49,0.00,,,0.02,Wunderground v.1.15,2013-05-15 15:45:00,
2013-05-15 11:50:00,77.7,56.4,29.81,ESE,108,11.0,11.0,48,0.00,,,0.02,Wunderground v.1.15,2013-05-15 15:50:00,
2013-05-15 12:01:00,77.8,56.0,29.81,North,349,13.0,15.0,47,0.00,,,0.02,Wunderground v.1.15,2013-05-15 16:01:00,
2013-05-15 12:10:00,78.6,56.7,29.81,NNE,15,12.0,12.0,47,0.00,,,0.02,Wunderground v.1.15,2013-05-15 16:10:00,
2013-05-15 12:15:00,78.9,56.4,29.82,NNW,332,13.0,16.0,46,0.00,,,0.02,Wunderground v.1.15,2013-05-15 16:15:00,
2013-05-15 12:20:00,79.1,57.1,29.81,ENE,65,12.0,12.0,47,0.00,,,0.02,Wunderground v.1.15,2013-05-15 16:20:00,
2013-05-15 12:30:00,79.6,57.0,29.82,ESE,117,13.0,13.0,46,0.00,,,0.02,Wunderground v.1.15,2013-05-15 16:30:00,
2013-05-15 12:40:00,79.8,56.6,29.81,SE,127,12.0,12.0,45,0.00,,,0.02,Wunderground v.1.15,2013-05-15 16:40:00,
2013-05-15 12:45:00,79.7,56.5,29.81,NNE,12,12.0,19.0,45,0.00,,,0.02,Wunderground v.1.15,2013-05-15 16:45:00,
2013-05-15 12:55:00,80.9,52.2,29.81,East,84,7.0,22.0,37,0.00,,,0.02,Wunderground v.1.15,2013-05-15 16:55:00,
2013-05-15 13:00:00,81.2,50.9,29.81,ENE,58,4.0,22.0,35,0.00,,,0.02,Wunderground v.1.15,2013-05-15 17:00:00,
2013-05-15 13:05:00,81.6,52.1,29.81,East,98,6.0,22.0,36,0.00,,,0.02,Wunderground v.1.15,2013-05-15 17:05:00,
2013-05-15 13:20:00,82.4,52.0,29.80,East,87,4.0,4.0,35,0.00,,,0.02,Wunderground v.1.15,2013-05-15 17:20:00,
2013-05-15 13:30:00,82.5,50.5,29.80,ENE,64,6.0,6.0,33,0.00,,,0.02,Wunderground v.1.15,2013-05-15 17:30:00,
2013-05-15 13:40:00,82.2,50.2,29.80,NE,39,7.0,22.0,33,0.00,,,0.02,Wunderground v.1.15,2013-05-15 17:40:00,
2013-05-15 13:45:00,82.4,50.4,29.81,North,352,8.0,22.0,33,0.00,,,0.02,Wunderground v.1.15,2013-05-15 17:45:00,
2013-05-15 13:55:00,82.6,50.6,29.81,NNE,15,6.0,13.0,33,0.00,,,0.02,Wunderground v.1.15,2013-05-15 17:55:00,
2013-05-15 14:00:00,82.7,49.0,29.81,North,354,7.0,7.0,31,0.00,,,0.02,Wunderground v.1.15,2013-05-15 18:00:00,
2013-05-15 14:10:00,82.3,48.6,29.80,East,90,9.0,9.0,31,0.00,,,0.02,Wunderground v.1.15,2013-05-15 18:10:00,
2013-05-15 14:20:00,82.7,49.0,29.80,ENE,67,5.0,5.0,31,0.00,,,0.02,Wunderground v.1.15,2013-05-15 18:20:00,
2013-05-15 14:25:00,83.0,49.2,29.80,NE,46,4.0,5.0,31,0.00,,,0.02,Wunderground v.1.15,2013-05-15 18:25:00,
2013-05-15 14:35:00,83.7,48.1,29.80,North,352,3.0,12.0,29,0.00,,,0.02,Wunderground v.1.15,2013-05-15 18:35:00,
2013-05-15 14:40:00,83.5,48.8,29.80,ENE,62,5.0,19.0,30,0.00,,,0.02,Wunderground v.1.15,2013-05-15 18:40:00,
2013-05-15 14:45:00,83.2,47.6,29.80,ENE,58,8.0,19.0,29,0.00,,,0.02,Wunderground v.1.15,2013-05-15 18:45:00,
2013-05-15 14:50:00,82.8,48.2,29.80,East,88,11.0,11.0,30,0.00,,,0.02,Wunderground v.1.15,2013-05-15 18:50:00,
2013-05-15 15:00:00,83.6,48.9,29.80,NE,39,5.0,5.0,30,0.00,,,0.02,Wunderground v.1.15,2013-05-15 19:00:00,
2013-05-15 15:05:00,83.8,49.1,29.81,SE,124,7.0,7.0,30,0.00,,,0.02,Wunderground v.1.15,2013-05-15 19:05:00,
2013-05-15 15:15:00,83.4,48.7,29.80,NE,52,6.0,19.0,30,0.00,,,0.02,Wunderground v.1.15,2013-05-15 19:15:00,
2013-05-15 15:20:00,83.5,48.8,29.80,ENE,65,6.0,6.0,30,0.00,,,0.02,Wunderground v.1.15,2013-05-15 19:20:00,
2013-05-15 15:25:00,83.9,48.2,29.81,ENE,61,4.0,19.0,29,0.00,,,0.02,Wunderground v.1.15,2013-05-15 19:25:00,
2013-05-15 15:30:00,83.9,48.2,29.80,NE,56,3.0,19.0,29,0.00,,,0.02,Wunderground v.1.15,2013-05-15 19:30:00,
2013-05-15 15:40:00,83.6,48.9,29.80,ENE,69,4.0,4.0,30,0.00,,,0.02,Wunderground v.1.15,2013-05-15 19:40:00,
2013-05-15 15:45:00,83.5,47.9,29.80,ENE,61,6.0,8.0,29,0.00,,,0.02,Wunderground v.1.15,2013-05-15 19:45:00,
2013-05-15 15:55:00,84.1,49.3,29.80,ENE,63,4.0,19.0,30,0.00,,,0.02,Wunderground v.1.15,2013-05-15 19:55:00,
2013-05-15 16:00:00,84.0,49.2,29.80,East,95,4.0,4.0,30,0.00,,,0.02,Wunderground v.1.15,2013-05-15 20:00:00,
2013-05-15 16:10:00,84.1,49.3,29.79,NW,308,3.0,3.0,30,0.00,,,0.02,Wunderground v.1.15,2013-05-15 20:10:00,
2013-05-15 16:15:00,84.5,48.8,29.80,NNE,23,3.0,4.0,29,0.00,,,0.02,Wunderground v.1.15,2013-05-15 20:15:00,
2013-05-15 16:25:00,84.4,48.7,29.79,ENE,70,3.0,4.0,29,0.00,,,0.02,Wunderground v.1.15,2013-05-15 20:25:00,
2013-05-15 16:30:00,84.3,49.5,29.79,ENE,61,2.0,2.0,30,0.00,,,0.02,Wunderground v.1.15,2013-05-15 20:30:00,
2013-05-15 16:35:00,84.3,49.5,29.79,East,84,2.0,20.0,30,0.00,,,0.02,Wunderground v.1.15,2013-05-15 20:35:00,
2013-05-15 16:45:00,82.9,48.3,29.79,NE,47,4.0,4.0,30,0.00,,,0.02,Wunderground v.1.15,2013-05-15 20:45:00,
2013-05-15 16:50:00,83.1,49.3,29.80,East,89,4.0,4.0,31,0.00,,,0.02,Wunderground v.1.15,2013-05-15 20:50:00,
2013-05-15 16:55:00,82.8,49.1,29.80,ENE,68,3.0,5.0,31,0.00,,,0.02,Wunderground v.1.15,2013-05-15 20:55:00,
2013-05-15 17:05:00,83.0,49.2,29.79,ENE,78,3.0,20.0,31,0.00,,,0.02,Wunderground v.1.15,2013-05-15 21:05:00,
2013-05-15 17:10:00,83.5,49.7,29.79,East,84,3.0,3.0,31,0.00,,,0.02,Wunderground v.1.15,2013-05-15 21:10:00,
2013-05-15 17:15:00,83.6,49.8,29.79,ENE,73,2.0,20.0,31,0.00,,,0.02,Wunderground v.1.15,2013-05-15 21:15:00,
2013-05-15 17:20:00,83.3,49.5,29.79,ENE,72,2.0,20.0,31,0.00,,,0.02,Wunderground v.1.15,2013-05-15 21:20:00,
2013-05-15 17:25:00,82.8,49.1,29.79,East,86,2.0,20.0,31,0.00,,,0.02,Wunderground v.1.15,2013-05-15 21:25:00,
2013-05-15 17:35:00,81.5,49.6,29.79,ENE,74,6.0,20.0,33,0.00,,,0.02,Wunderground v.1.15,2013-05-15 21:35:00,
2013-05-15 17:40:00,81.6,49.7,29.79,East,90,4.0,4.0,33,0.00,,,0.02,Wunderground v.1.15,2013-05-15 21:40:00,
2013-05-15 17:50:00,82.1,50.1,29.79,East,86,3.0,3.0,33,0.00,,,0.02,Wunderground v.1.15,2013-05-15 21:50:00,
2013-05-15 18:10:00,81.6,49.7,29.79,East,80,5.0,5.0,33,0.00,,,0.02,Wunderground v.1.15,2013-05-15 22:10:00,
2013-05-15 18:15:00,81.5,49.6,29.79,ENE,70,5.0,7.0,33,0.00,,,0.02,Wunderground v.1.15,2013-05-15 22:15:00,
2013-05-15 18:20:00,81.5,49.6,29.79,ENE,75,4.0,8.0,33,0.00,,,0.02,Wunderground v.1.15,2013-05-15 22:20:00,
2013-05-15 18:25:00,81.4,49.5,29.79,East,84,5.0,12.0,33,0.00,,,0.02,Wunderground v.1.15,2013-05-15 22:25:00,
2013-05-15 18:35:00,81.4,49.5,29.78,ENE,67,8.0,14.0,33,0.00,,,0.02,Wunderground v.1.15,2013-05-15 22:35:00,
2013-05-15 18:40:00,81.2,49.4,29.78,East,86,7.0,7.0,33,0.00,,,0.02,Wunderground v.1.15,2013-05-15 22:40:00,
2013-05-15 18:45:00,81.4,49.5,29.79,NE,34,5.0,14.0,33,0.00,,,0.02,Wunderground v.1.15,2013-05-15 22:45:00,
2013-05-15 18:55:00,81.1,49.3,29.79,East,91,4.0,14.0,33,0.00,,,0.02,Wunderground v.1.15,2013-05-15 22:55:00,
2013-05-15 19:00:00,80.9,49.1,29.79,East,80,4.0,4.0,33,0.00,,,0.02,Wunderground v.1.15,2013-05-15 23:00:00,
2013-05-15 19:10:00,80.4,48.7,29.79,ENE,73,4.0,4.0,33,0.00,,,0.02,Wunderground v.1.15,2013-05-15 23:10:00,
2013-05-15 19:15:00,80.0,48.3,29.79,ENE,75,6.0,7.0,33,0.00,,,0.02,Wunderground v.1.15,2013-05-15 23:15:00,
2013-05-15 19:20:00,79.6,48.8,29.79,NE,51,6.0,14.0,34,0.00,,,0.02,Wunderground v.1.15,2013-05-15 23:20:00,
2013-05-15 19:30:00,78.5,49.3,29.80,East,90,7.0,14.0,36,0.00,,,0.02,Wunderground v.1.15,2013-05-15 23:30:00,
2013-05-15 19:40:00,78.1,49.0,29.80,East,94,6.0,6.0,36,0.00,,,0.02,Wunderground v.1.15,2013-05-15 23:40:00,
2013-05-15 19:55:00,77.4,49.1,29.79,East,89,8.0,14.0,37,0.00,,,0.02,Wunderground v.1.15,2013-05-15 23:55:00,
2013-05-15 20:00:00,77.1,49.5,29.79,East,79,9.0,9.0,38,0.00,,,0.02,Wunderground v.1.15,2013-05-16 00:00:00,
2013-05-15 20:10:00,76.7,49.9,29.80,East,84,9.0,9.0,39,0.00,,,0.02,Wunderground v.1.15,2013-05-16 00:10:00,
2013-05-15 20:15:00,76.3,50.2,29.80,East,82,9.0,9.0,40,0.00,,,0.02,Wunderground v.1.15,2013-05-16 00:15:00,
2013-05-15 20:25:00,75.3,50.0,29.81,ENE,73,10.0,10.0,41,0.00,,,0.02,Wunderground v.1.15,2013-05-16 00:25:00,
2013-05-15 20:30:00,74.9,50.3,29.81,East,86,8.0,8.0,42,0.00,,,0.02,Wunderground v.1.15,2013-05-16 00:30:00,
2013-05-15 20:35:00,74.7,50.1,29.81,East,91,6.0,14.0,42,0.00,,,0.02,Wunderground v.1.15,2013-05-16 00:35:00,
2013-05-15 20:40:00,74.5,49.9,29.81,East,92,4.0,4.0,42,0.00,,,0.02,Wunderground v.1.15,2013-05-16 00:40:00,
2013-05-15 20:50:00,73.9,50.0,29.81,East,91,4.0,14.0,43,0.00,,,0.02,Wunderground v.1.15,2013-05-16 00:50:00,
2013-05-15 21:00:00,73.1,51.1,29.81,East,92,4.0,4.0,46,0.00,,,0.02,Wunderground v.1.15,2013-05-16 01:00:00,
2013-05-15 21:05:00,72.7,50.7,29.81,East,91,3.0,6.0,46,0.00,,,0.02,Wunderground v.1.15,2013-05-16 01:05:00,
2013-05-15 21:15:00,72.4,50.4,29.81,East,90,6.0,14.0,46,0.00,,,0.02,Wunderground v.1.15,2013-05-16 01:15:00,
2013-05-15 21:25:00,72.4,50.4,29.81,East,93,4.0,14.0,46,0.00,,,0.02,Wunderground v.1.15,2013-05-16 01:25:00,
2013-05-15 21:30:00,72.2,50.3,29.82,East,83,5.0,14.0,46,0.00,,,0.02,Wunderground v.1.15,2013-05-16 01:30:00,
2013-05-15 21:35:00,72.2,50.8,29.82,East,91,6.0,14.0,47,0.00,,,0.02,Wunderground v.1.15,2013-05-16 01:35:00,
2013-05-15 21:45:00,71.8,50.5,29.83,ENE,77,8.0,14.0,47,0.00,,,0.02,Wunderground v.1.15,2013-05-16 01:45:00,
2013-05-15 21:50:00,71.8,50.5,29.83,East,87,8.0,8.0,47,0.00,,,0.02,Wunderground v.1.15,2013-05-16 01:50:00,
2013-05-15 21:55:00,71.6,50.9,29.83,East,86,7.0,14.0,48,0.00,,,0.02,Wunderground v.1.15,2013-05-16 01:55:00,
2013-05-15 22:00:00,71.2,51.1,29.83,East,90,4.0,4.0,49,0.00,,,0.02,Wunderground v.1.15,2013-05-16 02:00:00,
2013-05-15 22:10:00,70.4,50.9,29.82,East,91,1.0,2.0,50,0.00,,,0.02,Wunderground v.1.15,2013-05-16 02:10:00,
2013-05-15 22:15:00,70.5,51.0,29.82,East,97,1.0,2.0,50,0.00,,,0.02,Wunderground v.1.15,2013-05-16 02:15:00,
2013-05-15 22:20:00,70.4,50.3,29.82,East,98,1.0,1.0,49,0.00,,,0.02,Wunderground v.1.15,2013-05-16 02:20:00,
2013-05-15 22:25:00,70.2,50.7,29.82,East,97,0.0,1.0,50,0.00,,,0.02,Wunderground v.1.15,2013-05-16 02:25:00,
2013-05-15 22:35:00,69.7,50.8,29.81,East,97,2.0,4.0,51,0.00,,,0.02,Wunderground v.1.15,2013-05-16 02:35:00,
2013-05-15 22:40:00,69.6,51.2,29.81,WSW,252,4.0,8.0,52,0.00,,,0.02,Wunderground v.1.15,2013-05-16 02:40:00,
2013-05-15 22:45:00,69.6,50.7,29.81,West,269,6.0,8.0,51,0.00,,,0.02,Wunderground v.1.15,2013-05-16 02:45:00,
2013-05-15 22:55:00,69.7,51.3,29.81,West,260,4.0,8.0,52,0.00,,,0.02,Wunderground v.1.15,2013-05-16 02:55:00,
2013-05-15 23:00:00,69.8,50.9,29.82,West,263,4.0,4.0,51,0.00,,,0.02,Wunderground v.1.15,2013-05-16 03:00:00,
2013-05-15 23:05:00,69.0,52.2,29.83,East,86,7.0,12.0,55,0.00,,,0.02,Wunderground v.1.15,2013-05-16 03:05:00,
2013-05-15 23:10:00,68.4,51.6,29.83,East,83,7.0,7.0,55,0.00,,,0.02,Wunderground v.1.15,2013-05-16 03:10:00,
2013-05-15 23:15:00,68.1,51.8,29.83,East,90,3.0,8.0,56,0.00,,,0.02,Wunderground v.1.15,2013-05-16 03:15:00,
2013-05-15 23:25:00,67.6,51.8,29.83,East,93,3.0,8.0,57,0.00,,,0.02,Wunderground v.1.15,2013-05-16 03:25:00,
2013-05-15 23:35:00,67.0,51.7,29.83,East,91,2.0,8.0,58,0.00,,,0.02,Wunderground v.1.15,2013-05-16 03:35:00,
2013-05-15 23:40:00,66.8,51.5,29.83,East,83,2.0,8.0,58,0.00,,,0.02,Wunderground v.1.15,2013-05-16 03:40:00,
2013-05-15 23:45:00,66.7,51.5,29.83,East,84,2.0,8.0,58,0.00,,,0.02,Wunderground v.1.15,2013-05-16 03:45:00,
2013-05-15 23:55:00,66.0,51.7,29.83,East,86,2.0,8.0,60,0.00,,,0.02,Wunderground v.1.15,2013-05-16 03:55:00,